Wetbulb
62.93 64.01 65.28 66.07 66.38 66.30 66.48 66.27 66.16 65.65 65.69 65.90 65.69 66.30 66.53 65.56 64.39 63.77 63.99 63.05 61.76 60.36 60.16 60.00 59.79 60.91 59.21 59.17 57.75 56.63 56.19 55.39 53.59 55.49 57.49 59.71 60.16 61.00 60.82 61.65 61.79 61.21 60.34
64.64 66.04 66.62 67.85 66.63 65.78 65.62 66.37 66.73 65.28 65.73 66.61 66.77 66.57 66.55 65.63 64.51 63.60 61.81 61.71 60.74 60.21 60.00 60.08 60.42 62.42 60.46 58.68 57.29 56.23 55.41 56.71 55.53 54.49 57.47 59.99 60.20 60.53 60.84 60.76 61.08 61.80 61.25
67.15 67.00 67.35 67.38 66.99 65.96 67.20 67.40 66.79 66.34 66.03 66.75 66.30 65.65 65.62 65.33 63.99 62.44 61.60 61.20 60.90 60.46 60.56 60.37 60.05 61.31 60.16 58.01 56.45 56.01 55.79 58.31 58.33 58.21 58.60 60.69 60.31 60.18 58.90 59.44 59.10 59.30 60.00
67.20 67.02 66.81 66.95 67.27 66.97 67.92 67.65 66.80 66.75 66.42 65.61 65.47 65.29 64.95 63.91 62.25 61.89 61.03 60.54 60.54 61.08 61.46 61.50 61.78 61.64 59.03 58.64 57.68 56.80 57.03 57.49 58.61 59.52 59.32 58.84 58.48 58.86 58.63 57.63 56.99 58.42 58.19
66.28 66.34 65.61 66.13 66.24 65.96 65.62 65.12 64.89 64.61 64.29 62.81 62.03 61.44 61.98 62.08 61.99 62.41 61.98 60.79 59.93 59.99 61.05 61.62 62.44 62.01 59.65 58.98 59.21 57.95 57.53 56.93 59.03 58.85 57.53 57.67 57.19 57.37 56.21 57.05 56.14 56.81 57.23
65.70 65.29 65.52 65.12 64.63 63.38 62.50 61.60 61.76 60.06 61.26 60.68 59.86 59.93 59.49 58.58 48.63 54.01 58.69 59.96 60.23 59.62 58.70 59.53 59.83 59.72 58.23 55.14 56.55 56.57 58.67 58.41 57.73 56.69 56.31 57.03 56.87 56.59 57.11 56.75 56.59 56.35 53.83
64.72 65.10 64.58 63.82 63.07 62.37 61.36 60.30 59.21 59.22 60.16 59.79 59.84 58.97 56.97 55.18 47.54 49.15 53.52 59.80 59.04 58.92 58.83 59.35 61.04 60.38 57.47 58.47 52.76 53.97 53.56 52.98 56.13 56.25 56.65 57.27 57.03 57.35 57.57 56.75 56.94 55.23 55.06
64.49 64.09 63.75 63.05 61.89 60.28 60.73 59.59 59.72 61.52 61.49 60.79 58.98 56.97 55.62 54.64 47.90 49.70 53.89 60.26 59.31 58.62 59.80 61.16 60.47 59.51 58.65 59.25 58.93 57.83 57.61 57.08 56.48 57.53 57.08 57.39 57.92 58.14 58.40 58.09 56.34 56.25 57.09
62.74 62.88 62.33 61.20 59.40 61.34 61.26 61.17 61.37 61.98 60.69 58.07 56.79 56.06 56.87 56.75 47.54 49.54 56.24 58.27 57.27 56.85 59.34 60.75 60.50 58.61 47.90 49.54 57.78 55.90 54.76 54.65 51.13 51.12 51.65 49.72 48.99 50.30 54.52 57.59 55.77 55.41 53.85
60.49 61.08 60.94 61.28 61.40 61.19 61.42 61.13 60.58 59.18 59.86 59.41 57.73 56.51 53.14 56.26 46.45 47.72 54.80 58.57 57.89 56.79 56.22 56.33 51.86 54.18 45.73 48.63 57.26 56.41 55.82 55.70 56.19 55.86 54.54 50.33 51.79 52.05 50.96 57.26 56.65 54.96 53.76
60.77 60.39 60.30 61.68 61.16 61.40 61.01 60.55 58.87 60.16 59.72 58.01 56.85 55.92 57.07 56.73 52.95 46.09 50.08 57.41 57.57 57.44 55.93 55.98 53.96 45.37 45.00 46.82 51.31 57.39 55.56 56.55 53.55 56.79 56.51 56.51 56.47 56.25 57.08 57.84 57.83 56.39 53.63
60.56 60.02 59.63 60.26 62.08 61.88 60.43 58.57 59.69 59.73 58.73 57.95 57.21 57.53 57.69 56.67 49.72 46.82 48.45 51.47 52.91 56.79 56.35 55.12 50.02 43.73 44.10 45.73 51.26 44.46 46.09 52.51 57.25 56.43 55.92 55.44 55.92 56.51 56.82 57.04 57.22 56.62 56.66
60.17 58.95 59.39 60.59 61.57 61.11 59.92 58.86 59.20 59.37 58.47 57.19 56.11 55.81 56.63 56.17 52.83 44.82 45.00 45.55 49.12 56.09 56.09 48.10 42.65 41.92 42.47 44.62 43.19 44.64 49.14 56.84 56.57 55.68 55.18 55.82 56.55 56.66 56.70 56.75 57.14 57.13 57.48
59.69 58.11 57.87 59.37 58.70 58.10 59.28 59.46 59.71 59.00 58.17 57.97 56.21 56.19 56.71 55.96 54.60 53.89 53.27 51.90 47.61 49.24 47.70 49.66 48.95 48.63 48.37 48.68 51.90 53.82 56.44 56.90 56.44 55.81 55.59 55.89 56.20 55.75 55.41 56.03 55.51 55.82 56.05
58.54 58.73 59.86 58.26 56.43 53.45 50.17 52.07 58.31 57.23 57.13 58.63 57.29 56.92 56.87 55.68 54.29 52.38 53.32 55.49 55.77 51.92 53.70 55.45 54.87 54.75 54.58 55.26 55.51 55.23 55.89 55.93 55.87 55.83 55.47 55.45 55.57 55.17 54.79 55.41 55.65 54.91 55.01
58.32 60.06 59.52 57.19 56.69 54.14 53.14 50.16 40.59 41.28 43.73 45.55 49.70 54.36 55.82 49.17 45.00 45.73 44.82 43.73 44.46 46.27 54.65 54.51 54.36 54.71 54.85 55.39 54.93 54.60 55.39 54.20 55.67 55.92 55.75 55.66 55.23 54.28 54.31 55.39 55.83 55.25 53.90
58.24 58.95 58.40 58.37 57.19 56.33 56.05 54.66 51.71 47.70 43.72 41.51 44.10 44.64 46.27 45.17 43.01 42.83 41.74 41.02 41.20 47.00 55.09 54.61 54.33 54.87 55.09 55.97 55.97 55.49 55.03 55.87 56.11 56.14 55.81 55.67 55.53 56.50 53.86 55.35 55.31 54.64 53.60
59.10 53.95 58.98 58.58 57.80 56.13 56.11 56.31 56.41 56.91 55.87 52.56 43.25 42.87 41.20 41.74 41.92 40.47 40.65 46.40 53.41 52.37 54.95 54.90 54.80 54.40 54.10 53.72 54.12 53.62 54.00 54.08 54.79 54.95 54.96 56.12 56.29 56.49 55.95 54.87 54.77 53.87 54.03
58.75 59.16 59.93 59.80 58.36 56.50 56.63 56.63 55.95 55.79 53.87 51.53 50.93 45.55 40.42 39.00 39.56 40.29 42.28 54.91 55.73 56.07 55.79 54.27 54.23 54.60 56.07 56.15 55.56 55.47 55.19 54.88 55.01 55.51 56.12 56.62 56.64 55.15 54.79 55.05 54.41 48.41 49.62
58.90 53.05 55.89 59.47 58.22 58.02 57.46 56.40 55.27 55.37 55.61 55.85 55.51 53.03 48.91 49.75 51.00 50.87 52.06 54.33 56.05 56.99 57.39 56.99 56.98 58.28 58.87 57.96 57.78 57.10 56.25 55.71 56.76 56.21 57.32 58.04 57.39 56.17 55.57 56.68 56.55 55.76 53.97
59.06 57.37 53.54 59.99 59.00 59.04 57.85 56.57 56.19 56.36 55.89 55.50 55.25 49.57 37.75 54.07 52.79 53.10 53.55 56.19 57.67 56.69 57.86 58.49 58.18 58.40 58.67 58.72 58.57 57.89 58.09 57.87 58.49 58.61 58.38 58.33 58.90 58.35 58.86 59.01 58.56 57.69 56.12
58.73 58.26 59.49 59.12 59.72 59.46 58.36 57.93 57.84 56.95 56.44 55.87 54.75 50.71 39.93 55.39 55.17 55.57 55.35 52.08 49.73 48.64 50.66 50.89 49.11 48.76 49.04 50.19 50.05 56.27 58.43 58.35 57.72 56.63 58.22 58.38 58.12 58.33 58.54 57.90 57.21 55.77 53.80
59.09 59.35 58.47 58.19 58.65 54.10 58.52 58.64 58.63 57.40 56.76 56.19 56.10 55.83 55.93 55.32 54.05 51.11 49.79 47.83 45.29 44.69 45.69 46.04 45.32 43.64 45.58 46.64 46.43 44.81 50.93 50.29 50.51 52.82 54.37 58.93 58.31 58.22 58.03 58.29 58.38 57.64 57.51
55.94 55.19 54.29 53.82 56.31 57.76 57.32 57.63 57.73 52.01 56.19 55.98 54.22 54.23 52.15 49.71 47.88 45.35 45.09 45.03 43.10 41.89 40.12 41.24 40.17 40.61 41.79 41.48 42.48 42.60 39.78 41.82 48.49 54.34 56.67 55.53 54.96 54.16 54.58 55.00 55.77 54.90 53.88
50.49 51.29 49.60 48.40 50.10 50.09 49.99 49.90 49.88 50.06 49.75 48.25 46.95 47.69 48.38 46.80 45.03 43.45 41.69 39.67 38.76 37.51 36.60 37.20 37.31 37.77 38.55 37.12 38.10 38.67 35.99 34.63 41.63 40.12 49.33 48.46 49.54 49.85 50.40 50.04 50.32 50.19 49.74
45.75 47.00 47.39 46.73 45.74 46.07 47.31 46.46 45.05 44.63 44.33 43.62 42.68 41.65 40.58 39.97 40.30 40.13 39.88 38.89 37.05 37.34 37.22 36.70 35.86 35.67 35.67 35.31 34.34 33.08 33.81 33.94 37.57 35.64 45.36 45.01 43.60 44.26 44.89 44.98 45.49 45.89 45.12
MSLP
994.83 995.52 996.38 997.02 997.66 998.27 998.93 999.41 999.96 1000.47 1001.05 1001.81 1002.47 1002.73 1003.07 1003.82 1004.27 1004.83 1005.39 1005.84 1006.41 1006.95 1007.31 1007.63 1007.94 1008.16 1008.71 1008.90 1009.07 1009.38 1009.70 1010.12 1010.61 1010.93 1010.86 1010.85 1011.16 1011.38 1011.63 1011.92 1012.17 1012.44 1012.77
994.60 995.52 996.22 996.91 997.61 998.26 998.87 999.27 999.91 1000.66 1001.32 1001.88 1002.21 1002.57 1003.09 1003.76 1004.43 1004.88 1005.45 1005.90 1006.37 1006.84 1007.17 1007.53 1007.83 1008.05 1008.47 1008.60 1009.08 1009.40 1009.69 1009.85 1010.09 1010.62 1010.94 1011.24 1011.55 1011.94 1012.27 1012.48 1012.71 1012.93 1013.28
994.66 995.35 996.29 996.98 997.67 998.43 998.81 999.21 999.97 1000.71 1001.35 1001.78 1002.13 1002.59 1003.12 1003.76 1004.33 1004.89 1005.26 1005.76 1006.22 1006.61 1006.89 1007.24 1007.54 1007.89 1008.24 1008.64 1008.96 1009.40 1009.65 1009.73 1009.87 1010.31 1010.87 1011.31 1011.79 1012.15 1012.62 1012.99 1013.26 1013.65 1013.81
994.38 995.29 996.18 996.97 997.61 998.26 998.78 999.30 999.94 1000.55 1001.16 1001.69 1002.07 1002.57 1003.15 1003.74 1004.38 1004.88 1005.32 1005.69 1006.04 1006.31 1006.56 1006.85 1007.04 1007.42 1007.88 1008.29 1008.74 1009.18 1009.66 1009.91 1010.18 1010.52 1010.99 1011.48 1011.95 1012.53 1012.85 1013.24 1013.82 1014.15 1014.42
994.58 995.45 996.15 997.12 997.56 998.26 998.74 999.41 999.96 1000.58 1001.13 1001.89 1002.49 1003.07 1003.59 1004.12 1004.49 1004.85 1005.25 1005.59 1005.89 1006.23 1006.44 1006.62 1006.75 1006.91 1007.37 1007.74 1008.34 1008.97 1009.54 1009.97 1010.41 1010.79 1011.37 1011.90 1012.30 1012.70 1013.13 1013.67 1014.07 1014.51 1014.84
994.67 995.62 996.27 997.22 997.94 998.56 999.15 999.84 1000.49 1001.15 1001.72 1002.40 1003.08 1003.58 1004.15 1004.68 1005.02 1004.93 1005.12 1005.54 1005.75 1006.12 1006.44 1006.73 1006.91 1007.05 1007.33 1007.60 1008.03 1008.42 1008.95 1009.54 1010.26 1010.86 1011.41 1011.85 1012.37 1012.83 1013.35 1013.80 1014.11 1014.70 1015.32
995.12 995.98 996.68 997.60 998.44 999.11 999.78 1000.33 1001.07 1001.65 1002.27 1002.93 1003.63 1004.11 1004.61 1005.14 1005.31 1005.16 1005.19 1005.37 1005.69 1006.03 1006.35 1006.65 1006.95 1007.00 1007.46 1007.77 1008.17 1008.57 1009.03 1009.31 1009.40 1009.91 1010.87 1011.56 1012.25 1012.65 1013.24 1013.86 1014.28 1014.67 1015.24
995.48 996.17 997.06 997.86 998.80 999.48 1000.14 1000.77 1001.47 1002.16 1002.73 1003.47 1004.13 1004.69 1005.10 1005.55 1005.47 1005.31 1005.36 1005.59 1005.89 1006.11 1006.26 1006.60 1006.76 1007.26 1007.66 1007.86 1008.36 1009.02 1009.49 1009.86 1010.10 1010.21 1010.55 1011.22 1011.75 1012.63 1013.14 1013.60 1014.23 1014.95 1015.61
995.90 996.51 997.43 998.34 999.01 999.69 1000.54 1001.23 1001.84 1002.47 1003.24 1003.95 1004.52 1004.87 1005.27 1005.59 1005.67 1005.52 1005.67 1006.05 1006.35 1006.52 1006.57 1006.76 1007.07 1007.69 1008.00 1008.05 1008.52 1009.34 1009.95 1010.36 1010.46 1010.43 1010.79 1011.28 1011.85 1012.48 1012.94 1013.50 1014.38 1014.94 1015.81
996.10 996.85 997.55 998.56 999.23 1000.03 1000.86 1001.48 1002.12 1002.74 1003.67 1004.19 1004.82 1005.21 1005.52 1005.67 1005.90 1005.96 1006.13 1006.41 1006.68 1006.90 1007.26 1007.38 1007.65 1008.05 1008.33 1008.52 1008.88 1009.44 1010.15 1010.68 1011.00 1011.55 1011.88 1012.21 1012.26 1012.76 1013.07 1013.22 1013.92 1014.54 1015.52
996.36 997.08 998.00 998.78 999.60 1000.39 1001.08 1001.70 1002.46 1003.35 1004.08 1004.71 1005.18 1005.60 1005.76 1005.85 1006.39 1006.40 1006.47 1006.61 1006.84 1007.28 1007.71 1008.08 1008.43 1008.39 1008.75 1009.01 1009.19 1009.60 1010.06 1010.62 1011.14 1011.56 1012.08 1012.54 1012.90 1013.34 1013.57 1013.62 1013.72 1014.18 1015.16
996.77 997.67 998.47 999.06 999.90 1000.58 1001.25 1002.14 1002.87 1003.63 1004.30 1004.95 1005.44 1005.87 1006.11 1006.39 1006.73 1006.81 1006.77 1006.87 1007.12 1007.41 1007.99 1008.34 1008.78 1008.94 1009.33 1009.51 1009.63 1009.87 1010.34 1010.82 1011.35 1011.85 1012.32 1012.70 1013.02 1013.44 1013.77 1013.97 1014.11 1014.51 1014.86
997.39 998.21 998.96 999.56 1000.21 1000.88 1001.66 1002.62 1003.42 1003.85 1004.41 1005.07 1005.53 1006.01 1006.40 1006.76 1007.12 1007.13 1007.26 1007.34 1007.58 1007.91 1008.33 1008.68 1009.07 1009.40 1009.73 1010.01 1010.21 1010.43 1010.77 1011.08 1011.57 1012.05 1012.45 1012.78 1013.07 1013.43 1013.79 1014.24 1014.52 1014.68 1014.90
997.83 998.80 999.36 1000.03 1000.83 1001.46 1002.05 1002.78 1003.52 1003.99 1004.47 1004.97 1005.56 1006.03 1006.51 1006.96 1007.29 1007.54 1007.81 1008.04 1008.22 1008.71 1009.13 1009.42 1009.53 1009.82 1010.07 1010.62 1010.90 1011.00 1011.15 1011.34 1011.68 1012.14 1012.59 1012.98 1013.30 1013.65 1014.10 1014.33 1014.70 1015.05 1015.33
998.29 999.04 999.81 1000.63 1001.43 1002.44 1003.20 1003.83 1003.86 1003.96 1004.13 1004.63 1005.34 1005.86 1006.32 1006.93 1007.46 1007.51 1007.81 1008.20 1008.54 1008.94 1009.21 1009.54 1009.97 1010.34 1010.76 1011.00 1011.18 1011.42 1011.61 1011.79 1012.03 1012.36 1012.72 1013.09 1013.48 1013.85 1014.25 1014.50 1014.74 1015.19 1015.31
998.39 999.34 1000.12 1001.11 1001.94 1002.73 1003.35 1004.40 1004.80 1004.65 1004.52 1004.64 1005.02 1005.60 1006.31 1006.77 1007.45 1007.87 1008.22 1008.49 1008.90 1009.13 1009.43 1009.84 1010.21 1010.55 1010.84 1011.10 1011.38 1011.73 1011.88 1012.02 1012.22 1012.49 1012.84 1013.16 1013.51 1013.94 1014.29 1014.55 1014.72 1014.99 1015.27
998.73 999.70 1000.52 1001.25 1001.95 1002.50 1003.05 1003.67 1004.81 1005.69 1005.21 1005.48 1005.56 1006.03 1006.63 1007.30 1007.80 1008.31 1008.77 1009.12 1009.45 1009.44 1009.75 1010.13 1010.40 1010.69 1010.92 1011.13 1011.41 1011.70 1011.94 1012.09 1012.31 1012.57 1012.91 1013.22 1013.53 1013.91 1014.25 1014.54 1014.77 1015.06 1015.31
998.87 999.62 1000.55 1001.37 1001.93 1002.53 1002.95 1003.52 1004.03 1004.71 1005.51 1006.57 1007.05 1007.16 1007.43 1007.86 1008.28 1008.80 1009.33 1009.55 1009.75 1009.84 1009.91 1010.17 1010.45 1010.68 1010.92 1011.18 1011.47 1011.73 1012.01 1012.32 1012.49 1012.71 1012.98 1013.10 1013.43 1013.80 1014.12 1014.31 1014.54 1014.74 1014.86
999.21 1000.06 1000.66 1001.38 1002.05 1002.55 1003.10 1003.64 1004.21 1004.85 1005.76 1006.72 1007.54 1008.16 1008.56 1008.60 1008.76 1009.12 1009.35 1009.49 1009.55 1009.72 1009.91 1010.11 1010.28 1010.57 1010.82 1011.07 1011.40 1011.65 1011.97 1012.35 1012.50 1012.74 1012.87 1013.01 1013.18 1013.55 1013.77 1014.00 1014.20 1014.32 1014.48
999.19 999.69 1000.66 1001.42 1002.18 1002.84 1003.34 1003.91 1004.61 1005.19 1005.89 1006.60 1007.40 1008.28 1008.77 1009.05 1009.55 1009.81 1009.99 1010.06 1009.93 1009.84 1009.83 1009.96 1010.12 1010.16 1010.46 1010.82 1011.11 1011.35 1011.73 1012.12 1012.36 1012.52 1012.54 1012.61 1012.81 1013.07 1013.22 1013.41 1013.57 1013.76 1013.72
999.12 1000.22 1000.70 1001.67 1002.29 1002.85 1003.54 1004.27 1004.97 1005.55 1006.26 1007.12 1008.07 1009.08 1009.19 1009.35 1009.82 1010.26 1010.42 1010.17 1010.08 1010.00 1009.91 1009.90 1010.25 1010.36 1010.56 1010.77 1011.00 1011.29 1011.48 1011.64 1011.80 1011.88 1012.04 1012.17 1012.27 1012.38 1012.22 1012.31 1012.65 1012.63 1012.53
999.32 1000.48 1000.98 1001.84 1002.62 1003.40 1004.17 1004.73 1005.41 1006.07 1006.82 1007.50 1008.48 1009.19 1009.14 1009.63 1010.00 1010.33 1010.65 1010.88 1011.05 1011.06 1010.92 1010.87 1011.15 1011.40 1011.57 1011.61 1011.54 1011.25 1011.22 1011.48 1011.69 1011.79 1011.76 1011.77 1011.81 1011.85 1011.85 1011.92 1012.03 1012.18 1012.23
1000.16 1000.93 1001.74 1002.56 1003.03 1003.80 1004.55 1005.07 1005.67 1006.44 1007.19 1007.78 1008.50 1009.04 1009.49 1009.90 1010.39 1010.92 1011.39 1011.92 1012.21 1012.20 1012.20 1012.13 1012.25 1012.32 1012.37 1012.44 1012.48 1012.33 1012.22 1012.29 1012.22 1011.94 1011.80 1011.56 1011.35 1011.23 1011.38 1011.60 1011.58 1011.75 1011.88
1001.10 1001.83 1002.56 1003.58 1004.07 1004.55 1005.15 1005.72 1006.37 1007.00 1007.78 1008.42 1009.05 1009.54 1010.11 1010.70 1011.35 1011.99 1012.42 1012.92 1013.13 1013.37 1013.58 1013.69 1013.92 1013.82 1013.63 1013.65 1013.53 1013.38 1013.36 1012.98 1012.39 1011.97 1011.49 1011.87 1012.02 1011.90 1011.84 1011.97 1012.13 1012.37 1012.37
1002.49 1003.05 1003.89 1004.58 1005.40 1006.00 1006.44 1006.88 1007.56 1008.11 1008.88 1009.68 1010.32 1010.68 1011.09 1011.68 1012.29 1012.93 1013.53 1013.96 1014.21 1014.58 1014.95 1014.99 1015.05 1014.98 1014.88 1014.76 1014.55 1014.10 1013.70 1013.20 1012.87 1012.73 1012.52 1012.66 1012.62 1012.55 1012.75 1012.92 1013.04 1012.82 1013.13
1004.41 1004.84 1005.27 1005.40 1006.64 1007.59 1008.02 1008.60 1009.01 1009.54 1010.22 1011.08 1011.75 1012.30 1012.86 1013.33 1013.79 1014.19 1014.60 1015.05 1015.53 1015.86 1015.99 1016.16 1016.34 1016.37 1016.23 1016.07 1015.78 1015.39 1014.70 1014.33 1013.73 1013.62 1013.52 1013.59 1013.51 1013.79 1013.74 1013.87 1013.81 1013.76 1013.98
Wind_Speed
8 7 8 7 8 8 8 9 9 8 8 7 6 6 7 7 7 7 5 6 6 6 5 6 6 5 3 3 3 2 3 3 3 1 1 2 3 4 5 5 5 4 3
9 8 9 10 9 9 8 9 9 7 7 8 7 7 8 8 7 6 6 6 7 7 6 6 6 4 5 4 3 4 3 3 4 4 2 2 4 4 6 7 5 5 3
11 10 10 11 11 9 10 10 10 9 8 8 9 9 9 9 7 6 7 7 6 7 7 6 6 6 5 4 4 4 3 2 2 4 4 3 3 4 7 6 6 5 4
12 11 11 10 11 10 10 11 11 10 10 9 8 9 9 7 6 6 6 6 6 6 6 6 6 6 7 6 5 6 4 4 4 6 6 4 4 5 4 7 5 4 5
13 12 11 10 11 11 12 11 10 10 9 7 7 6 6 6 3 6 6 6 6 5 5 5 5 6 8 8 6 6 6 5 6 6 5 4 3 4 7 3 4 4 5
14 13 13 12 12 12 11 10 10 9 9 9 7 7 8 5 4 7 7 5 6 6 5 3 3 5 6 10 9 12 11 10 7 6 4 6 4 5 6 6 7 5 3
15 13 14 13 12 11 10 10 8 8 8 8 8 7 6 5 4 6 7 5 5 5 6 5 4 3 4 5 6 10 7 5 8 6 10 8 7 6 8 8 6 3 3
16 15 14 13 11 10 8 8 8 8 10 8 7 7 6 3 3 7 8 5 5 3 6 6 7 4 3 9 9 7 6 5 4 4 7 8 8 9 8 6 7 7 6
15 14 12 11 9 10 11 9 8 10 9 6 5 7 8 4 4 8 8 6 5 5 5 4 7 6 6 10 12 10 6 4 7 8 10 12 15 13 10 9 7 9 3
12 13 13 11 10 10 11 10 5 7 8 7 7 5 7 6 6 7 6 4 6 5 5 6 8 7 10 10 10 10 9 5 7 5 6 7 10 11 12 7 8 9 5
10 11 11 12 11 11 10 8 7 9 9 8 8 5 6 5 4 5 6 4 5 5 4 3 3 10 9 10 10 7 8 8 8 7 6 5 5 6 2 4 6 10 6
12 12 11 10 10 9 11 6 9 10 10 9 10 6 4 4 4 3 6 7 6 6 4 3 4 11 10 10 6 14 14 10 6 6 5 5 6 4 4 4 5 4 4
12 11 9 9 9 10 10 9 8 8 8 8 7 6 4 3 3 7 8 9 9 6 4 7 11 12 12 10 13 13 9 6 6 6 5 4 4 4 5 4 4 5 3
12 9 6 8 7 6 5 7 8 7 6 7 7 5 4 3 3 3 4 6 9 8 10 5 8 9 9 8 5 5 4 5 6 5 4 4 5 4 4 3 3 4 2
11 9 8 7 9 7 6 4 4 3 5 8 5 8 7 5 3 6 7 6 5 6 8 5 5 5 6 4 4 4 4 5 5 4 5 5 4 4 2 2 3 3 3
9 8 8 7 7 6 7 6 14 7 2 2 12 9 3 10 11 11 11 13 13 9 4 5 5 5 5 4 4 4 3 4 4 5 4 4 4 3 3 3 2 3 3
10 9 7 7 6 6 5 7 8 7 18 15 10 12 11 10 12 12 12 12 8 5 4 4 4 4 3 3 4 4 3 3 4 5 5 5 5 4 4 4 3 2 3
9 12 7 6 7 5 5 6 6 8 8 4 11 7 11 12 13 13 11 8 3 3 3 5 5 4 3 3 3 3 3 3 3 4 4 4 4 4 3 4 4 4 4
9 6 7 6 6 7 5 6 7 9 8 7 6 7 7 10 10 10 6 2 3 3 4 4 4 4 4 4 4 4 4 4 3 4 4 4 3 3 3 4 4 6 5
7 13 8 7 7 7 5 7 8 9 8 8 7 6 5 4 3 3 1 2 1 0 3 4 4 5 5 4 4 5 5 5 5 4 5 4 5 4 5 5 6 6 7
7 7 13 7 6 7 6 7 7 9 8 7 6 5 4 4 4 4 1 3 3 4 3 3 4 3 2 4 3 3 3 3 4 5 4 4 5 6 8 7 7 8 8
7 7 7 8 6 7 7 8 8 9 8 8 7 3 6 5 5 4 5 7 6 6 6 6 6 6 6 5 4 0 4 4 4 1 4 5 5 6 7 8 6 6 4
9 9 8 6 8 10 9 7 9 9 8 8 6 4 5 6 7 8 8 8 7 7 8 8 7 7 6 6 6 6 4 3 2 2 3 3 3 1 1 1 1 2 2
11 11 12 10 7 8 8 8 8 10 11 8 9 9 9 9 10 11 9 9 9 9 9 9 9 10 8 7 6 6 4 3 3 2 4 5 5 5 7 5 5 7 5
10 11 11 11 10 9 10 10 10 11 12 11 10 10 10 11 11 11 10 9 10 10 12 10 9 12 14 14 14 14 11 9 8 7 7 8 9 10 7 5 5 7 8
11 10 9 12 11 9 9 9 11 11 12 10 10 10 10 10 10 10 10 11 10 10 12 10 13 17 16 13 16 16 16 14 12 12 7 8 9 7 7 8 10 7 7
Wind_Direction
146 142 144 140 134 140 151 152 154 140 142 152 161 143 128 134 136 140 152 147 155 157 161 169 173 160 166 168 148 146 149 136 146 159 103 95 86 101 86 92 112 86 91
148 143 141 135 137 139 144 142 134 132 136 147 141 133 143 139 144 148 155 153 160 173 175 171 183 169 158 188 159 165 163 174 146 128 108 88 90 121 113 108 94 80 93
137 129 133 140 145 150 148 139 138 138 139 133 136 138 138 149 154 159 159 166 175 177 180 184 187 179 168 184 155 166 141 111 82 114 115 87 90 108 93 84 79 70 64
125 127 132 141 145 140 139 141 136 137 133 133 138 140 152 159 150 162 163 166 174 186 191 195 183 173 175 178 161 161 135 109 99 108 98 89 82 78 84 117 91 73 102
121 126 120 126 122 122 119 119 121 126 130 120 107 101 115 118 131 165 171 176 182 186 197 191 196 177 186 173 151 153 142 123 133 128 109 120 118 125 136 101 107 99 58
116 116 114 113 112 110 111 114 116 106 111 109 104 113 111 102 93 133 152 155 167 167 169 130 144 156 176 169 156 153 165 153 151 136 149 138 123 113 125 139 130 135 102
121 124 123 122 122 121 120 112 107 115 110 103 103 103 99 108 114 132 156 144 143 170 162 146 150 94 172 139 138 142 139 141 158 146 150 150 151 144 147 145 139 99 102
127 126 128 129 132 120 114 111 109 123 120 118 108 111 113 106 106 120 117 107 104 135 155 158 111 130 147 137 127 114 113 110 122 114 140 141 131 141 149 132 120 102 92
134 131 135 140 120 115 120 122 118 115 107 108 126 117 117 106 95 97 96 91 87 72 87 109 129 140 140 125 121 120 104 65 45 110 123 127 133 135 136 130 136 133 117
133 138 133 122 119 127 132 127 125 108 116 113 101 98 113 106 81 100 103 117 102 92 57 80 94 127 134 120 124 129 127 134 116 102 88 93 126 142 154 152 151 146 130
123 119 128 136 133 141 132 126 112 114 113 111 107 97 102 97 92 109 124 105 119 109 106 96 86 132 126 129 127 136 135 124 112 109 108 113 119 139 120 129 158 150 148
123 125 126 132 139 137 125 111 115 122 122 122 119 108 100 100 112 107 130 115 108 115 116 94 96 106 112 110 108 119 121 116 117 119 127 133 140 141 134 123 123 118 120
125 122 127 133 139 132 128 127 126 130 133 137 132 134 121 102 87 85 90 106 96 100 107 107 110 100 96 89 115 118 120 121 125 131 138 132 144 124 110 88 75 115 79
129 126 117 120 99 90 111 135 141 142 138 140 139 133 129 120 106 108 105 94 87 86 106 106 99 93 90 107 109 94 105 131 134 135 125 108 113 121 126 126 134 164 145
125 126 118 111 106 92 63 32 134 110 144 153 146 153 148 142 168 138 129 121 119 121 118 110 109 111 121 117 105 102 113 124 130 129 134 131 131 127 118 142 130 145 184
127 133 130 123 125 132 128 96 42 41 137 133 127 138 104 120 129 119 114 115 122 131 98 117 124 131 138 138 133 130 134 138 141 140 143 149 142 142 151 166 136 168 192
124 129 122 129 134 139 134 127 118 65 74 55 103 113 112 137 123 124 127 114 76 113 117 125 134 140 142 136 145 151 144 151 139 150 154 159 156 173 164 175 173 168 223
139 129 130 135 136 125 117 116 123 125 117 82 37 73 107 116 123 124 122 110 94 81 133 150 157 161 165 159 155 154 144 144 150 148 157 173 167 182 167 178 188 198 218
130 129 137 133 127 120 111 101 105 110 108 114 114 70 63 80 113 129 146 114 131 151 156 163 167 173 183 176 175 162 151 158 168 170 186 199 179 171 203 209 215 220 221
149 147 127 125 124 128 121 113 112 119 124 131 134 134 137 114 127 154 63 27 19 133 191 192 196 189 178 169 174 172 164 168 183 186 195 196 197 190 211 217 219 225 225
146 122 127 126 134 146 122 118 115 124 127 118 110 82 53 98 95 87 69 357 47 38 43 126 89 111 126 160 176 170 186 191 200 202 209 219 218 216 223 227 235 228 233
116 109 121 123 130 102 110 116 113 114 116 112 111 115 109 111 116 113 62 57 45 35 30 54 62 52 40 36 11 195 177 156 139 150 217 220 213 217 230 241 247 255 257
95 103 87 73 108 117 116 117 116 120 118 115 121 114 92 76 77 77 73 65 55 48 45 48 50 51 44 43 32 22 28 62 38 342 322 345 1 260 272 291 131 25 340
93 89 92 82 81 106 111 110 112 108 114 96 82 87 85 85 84 77 72 70 65 58 53 55 48 49 45 42 31 36 29 354 323 323 38 61 66 37 57 36 50 41 51
76 91 86 83 78 83 89 89 89 91 93 88 79 75 79 82 80 76 71 66 66 65 56 48 45 42 42 38 35 28 15 25 46 33 50 54 51 57 57 56 59 60 41
72 80 96 90 79 71 84 94 96 92 91 87 84 79 77 74 75 76 76 74 67 62 60 50 46 44 39 30 24 13 20 15 32 30 46 58 63 51 64 53 50 53 46